Location: ?ernice
(48.8383°N, 14.3803°E)
Time: 21:29:29
(UTC+00:00)

CZ-2C R/B - Pass Details

Date: 23 May 2024
Orbit: 784 x 868 km, 98.3° (Epoch: 20 June)

Event Time Altitude Azimuth Distance (km) Brightness Sun altitude
Exits shadow 02:29:16 - 223° (SW) 2,556 4.5 -6.3°
Reaches altitude 10° 02:30:05 10° 229° (SW) 2,340 4.3 -6.2°
Maximum altitude 02:33:30 18° 271° (W) 1,868 4.1 -5.8°
Drops below altitude 10° 02:36:56 10° 313° (NW) 2,355 5.0 -5.3°
Sets 02:40:04 0° 333° (NNW) 3,297 5.9 -4.9°
